Flag for U.S.A. Weather past 2 weeks in Arlington, Texas, U.S.A.

Now
76 °F

Clear.


Feels Like: 78 °F
Forecast: 73 / 92 °F
Wind: 3 mph from South

Location: Grand Prairie Municipal Airport

Current Time: Sep 3, 2015 at 6:09:46 AM

Latest Report: Sep 3, 2015 at 5:35 AM


Visibility: 10 mi

Pressure: 29.97 "Hg

Humidity: 77%

Dew point: 68 °F

Location of ArlingtonLocation

Historic Weather in Arlington — Graph

°F

Arlington temperature yesterday

Maximum temperature yesterday: 91 °F (at 2:50 PM)
Minimum temperature yesterday: 73 °F (at 6:35 AM)
Average temperature yesterday: 81 °F

Past Weeks' High & Low Weather Summary

 TemperatureHumidityPressure
High99 °F (Aug 23, 2:50 PM)100% (Aug 20, 10:55 PM)30.17 "Hg (Aug 20, 10:55 PM)
Low66 °F (Aug 20, 3:35 AM)28% (Aug 26, 4:50 PM)29.79 "Hg (Aug 19, 4:15 AM)
Average81 °F65%30.00 "Hg
* Reported Aug 19 4:15 AM — Sep 3 4:55 AM, Arlington, Weather by CustomWeather, © 2015

Note: Actual official high and low records may vary slightly from our data, if they occured in-between our weather recording intervals... More about our weather records

Advertising

Arlington weather history for previous 24 hours

 ConditionsComfort  
Time TempWeatherWind HumidityBarometerVisibility
4:55 AM
Thu, Sep 3
76 °FClear.3 mph76%29.97 "Hg10 mi
4:35 AM77 °FClear.3 mph74%29.97 "Hg10 mi
4:15 AM77 °FClear.3 mph73%29.97 "Hg10 mi
3:55 AM78 °FClear.5 mph71%29.97 "Hg10 mi
3:35 AM78 °FClear.6 mph70%29.97 "Hg10 mi
3:15 AM78 °FClear.3 mph69%29.97 "Hg10 mi
2:55 AM79 °FClear.No wind68%29.97 "Hg10 mi
2:35 AM79 °FClear.5 mph67%29.97 "Hg10 mi
2:15 AM79 °FClear.6 mph68%29.97 "Hg10 mi
1:55 AM79 °FClear.5 mph67%29.97 "Hg10 mi
1:35 AM79 °FClear.3 mph66%29.97 "Hg10 mi
1:15 AM80 °FClear.3 mph65%29.97 "Hg10 mi
12:55 AM80 °FClear.3 mph64%29.98 "Hg10 mi
12:35 AM80 °FClear.No wind63%29.97 "Hg10 mi
12:15 AM81 °FClear.3 mph61%29.98 "Hg10 mi
11:55 PM
Wed, Sep 2
81 °FClear.3 mph61%29.98 "Hg10 mi
11:35 PM82 °FClear.3 mph59%29.98 "Hg10 mi
10:55 PM83 °FClear.3 mph56%29.98 "Hg10 mi
10:35 PM83 °FClear.5 mph55%29.98 "Hg10 mi
10:15 PM84 °FClear.5 mph55%29.98 "Hg10 mi
9:55 PM84 °FClear.6 mph54%29.98 "Hg10 mi
9:35 PM85 °FClear.5 mph53%29.98 "Hg10 mi
9:15 PM85 °FClear.5 mph52%29.97 "Hg10 mi
8:55 PM86 °FClear.5 mph50%29.97 "Hg10 mi
8:35 PM87 °FSunny.6 mph49%29.95 "Hg10 mi
8:15 PM87 °FSunny.6 mph47%29.95 "Hg10 mi
7:50 PM88 °FSunny.7 mph46%29.94 "Hg10 mi
6:50 PM91 °FSunny.12 mph38%29.94 "Hg10 mi
5:50 PM91 °FSunny.10 mph38%29.95 "Hg10 mi
4:50 PM91 °FSunny.10 mph41%29.97 "Hg10 mi
3:50 PM91 °FSunny.13 mph38%29.99 "Hg10 mi
2:50 PM91 °FSunny.6 mph41%30.02 "Hg10 mi
1:50 PM90 °FSunny.9 mph46%30.04 "Hg10 mi
12:50 PM88 °FSunny.9 mph49%30.06 "Hg10 mi
11:50 AM84 °FSunny.9 mph55%30.08 "Hg10 mi
10:50 AM82 °FSunny.7 mph66%30.09 "Hg10 mi
9:50 AM79 °FSunny.7 mph74%30.10 "Hg10 mi
8:50 AM73 °FSunny.9 mph89%30.10 "Hg10 mi
7:50 AM73 °FClear.5 mph89%30.08 "Hg10 mi
6:50 AM73 °FClear.7 mph89%30.06 "Hg10 mi
6:35 AM73 °FClear.6 mph87%30.06 "Hg10 mi
6:15 AM73 °FClear.6 mph85%30.06 "Hg10 mi
Weather by CustomWeather, © 2015

See weather overviewHow to use our weather pages